Regional Weather Roundup
Issued by NWS Little Rock, AR

Home | Current Version | Previous Version | Graphics & Text | Print | Product List | Glossary On
Versions: 1 2 3 4 5 6 7 8 9 10 11 12 13 14 15 16 17 18 19 20 21 22 23 24 25 26 27 28 29 30 31 32 33 34 35 36 37 38 39 40 41 42 43 44 45 46 47 48 49 50
000
ASUS44 KLZK 202205
RWRLZK

WEATHER ROUNDUP FOR ARKANSAS
NATIONAL WEATHER SERVICE LITTLE ROCK AR
500 PM CDT WED AUG 20 2014

NOTE: "FAIR" INDICATES FEW OR NO CLOUDS BELOW 12,000 FEET WITH NO
SIGNIFICANT WEATHER AND/OR OBSTRUCTIONS TO VISIBILITY.

ARZ001-003-010-029-202300-
NORTHWEST ARKANSAS

CITY           SKY/WX    TMP DP  RH WIND       PRES   REMARKS
FAYETTEVILLE   MOSUNNY   87  65  47 S15       29.99S HX  89
FORT SMITH     SUNNY     93  68  43 SE8       29.93F HX  97
HARRISON       MOSUNNY   85  62  46 SW7       30.00F HX  85
BENTONVILLE    MOSUNNY   90  59  35 SW13G22   29.99F HX  89
ROGERS         PTSUNNY   89  56  32 SW14      29.99F HX  87
SILOAM SPGS    PTSUNNY   88  63  42 SW13      29.98F HX  88
HIGHFILL       MOSUNNY   89  58  34 S15       29.98F HX  88
SPRINGDALE     PTSUNNY   91  63  38 SW18      30.00F HX  92
$$

ARZ004-005-016-202300-
NORTH CENTRAL ARKANSAS

CITY           SKY/WX    TMP DP  RH WIND       PRES   REMARKS
BATESVILLE     MOSUNNY   97  72  44 S9        29.94F HX 105
FLIPPIN          N/A     93  55  27 SW14      29.97S HX  91
MTN HOME       MOSUNNY   93  65  39 S13       29.96F HX  95
$$

ARZ040-041-202300-
WEST CENTRAL ARKANSAS

CITY           SKY/WX    TMP DP  RH WIND       PRES   REMARKS
MENA           SUNNY     91  73  55 CALM      30.00F HX 100
MOUNT IDA      SUNNY     89  69  51 VRB3      29.98F HX  93
$$

ARZ009-017-025-026-028-202300-
NORTHEAST ARKANSAS

CITY           SKY/WX    TMP DP  RH WIND       PRES   REMARKS
JONESBORO      SUNNY     92  75  57 S18       29.94F HX 103
NEWPORT        SUNNY     94  75  53 S16G22    29.95F HX 105
WALNUT RIDGE   SUNNY     93  70  46 S16       29.92F HX  99
BLYTHEVILLE    SUNNY     91  75  59 SW12      29.96F HX 101
$$

ARZ022-023-033-042-044-202300-
CENTRAL ARKANSAS

CITY           SKY/WX    TMP DP  RH WIND       PRES   REMARKS
LITTLE ROCK    SUNNY     92  66  42 SW9       29.98F HX  94
N LITTLE ROCK  SUNNY     92  71  50 SW10      29.98F HX  99
JACKSONVILLE   SUNNY     92  72  51 S8        29.97F HX  99
SEARCY           N/A     93  73  52 CALM        N/A  HX 101
HOT SPRINGS    SUNNY     91  70  49 S6        29.99F HX  96
RUSSELLVILLE   SUNNY     93  70  46 VRB6      29.96F HX  99
CLINTON        FAIR      97  66  36 SW10      29.96F HAZE    HX 100
$$

ARZ036-202300-
EAST ARKANSAS

CITY           SKY/WX    TMP DP  RH WIND       PRES   REMARKS
WEST MEMPHIS   SUNNY     91  73  55 SW8       29.96F HX  99
$$

ARZ050-053-066-070-073-202300-
SOUTHWEST ARKANSAS

CITY           SKY/WX    TMP DP  RH WIND       PRES   REMARKS
ARKADELPHIA    FAIR      93  75  55 CALM      29.98F HX 104
CAMDEN         MOSUNNY   93  72  49 SE3       29.98F HX 100
TEXARKANA      MOSUNNY   93  68  43 SE6       29.96F HX  97
EL DORADO      MOSUNNY   90  73  57 S7        29.99F HX  98
DE QUEEN       SUNNY     90  71  53 SE7       29.94F HX  96
$$

ARZ056-057-069-202300-
SOUTHEAST ARKANSAS

CITY           SKY/WX    TMP DP  RH WIND       PRES   REMARKS
PINE BLUFF     SUNNY     91  72  53 S6        29.99F HX  98
STUTTGART      SUNNY     91  73  55 S8        29.99F HX 100
MONTICELLO     MOSUNNY   90  72  55 SE5       30.00F HX  97

$$




USA.gov is the U.S. government's official web portal to all federal, state and local government web resources and services.